Regional Weather Roundup
Issued by NWS

Home | Current Version | Previous Version | Graphics & Text | Print | Product List | Glossary On
Versions: 1 2 3 4 5 6 7 8 9 10 11 12 13 14 15 16 17 18 19 20 21 22 23 24 25 26 27 28 29 30 31 32 33 34 35 36 37 38 39 40 41 42 43 44 45 46 47 48 49 50
000
ASUS44 KMEG 212010
RWRTN
TENNESSEE HOURLY STATE WEATHER ROUNDUP
NATIONAL WEATHER SERVICE MEMPHIS TN
300 PM CDT SUN SEP 21 2014

TNZ002-004-019-021-049-052-054-088>092-212100-
WEST TENNESSEE

CITY           SKY/WX    TMP DP  RH WIND       PRES   REMARKS
MEMPHIS INTL   PTSUNNY   88  69  53 N14       29.97F HX  92
NWS MEMPHIS      N/A     88 N/A N/A MISG        N/A
JACKSON        PTSUNNY   86  69  56 W10       29.97F HX  90
DYERSBURG      MOSUNNY   82  61  47 NW7       29.98F
UNION CITY     SUNNY     81  61  50 NW13      29.97S
PARIS          MOSUNNY   82  64  54 NW8       29.97F
HUNTINGDON     MOSUNNY   82  66  58 W10       29.96F
LEXINGTON      PTSUNNY   84  70  61 NW12      29.95F
SAVANNAH       PTSUNNY   86  70  58 W9        29.95F HX  90
$$

TNZ008-025-027-028-033-062-065-066-212100-
NORTH MIDDLE TENNESSEE

CITY           SKY/WX    TMP DP  RH WIND       PRES   REMARKS
NASHVILLE      PTSUNNY   87  67  51 W8G21     29.92F HX  90
DICKSON        SUNNY     82  64  54 W12       29.94F
PORTLAND       MOSUNNY   82  64  54 NW12      29.91F
CLARKSVILLE    MOSUNNY   82  64  54 NW12      29.94S
LEBANON        MOSUNNY   84  67  56 W9        29.90
SMYRNA         MOSUNNY   85  68  56 NW14      29.93F
COOKEVILLE     CLOUDY    77  72  83 W6        29.94S
LIVINGSTON     PTSUNNY   77  67  71 N7        29.94F
GALLATIN       MOSUNNY   79  71  76 VRB6      29.93F
CROSSVILLE     PTSUNNY   76  67  73 W9        29.98F
$$

TNZ061-075-076-078-094-096-097-212100-
SOUTH MIDDLE TENNESSEE

CITY           SKY/WX    TMP DP  RH WIND       PRES   REMARKS
LEWISBURG      PTSUNNY   87  69  54 W8        29.94F HX  91
FAYETTEVILLE   PTSUNNY   82  63  51 W10       29.96F
TULLAHOMA      PTSUNNY   82  66  57 W10       29.97S
WINCHESTER     PTSUNNY   86  66  51 VRB7      29.95F
MCMINNVILLE    SUNNY     81  72  74 W9        29.94F
COLUMBIA       PTSUNNY   84  72  65 VRB3      29.93F
SHELBYVILLE    PTSUNNY   86  70  58 W13       29.95F HX  90
$$

TNZ017-018-042-046-047-212100-
NORTHEAST TENNESSEE

CITY           SKY/WX    TMP DP  RH WIND       PRES   REMARKS
TRI CITIES     PTSUNNY   78  64  61 W10       29.91F
ELIZABETHTON   PTCLDY    75  64  69 W6        29.91S
$$

TNZ012-013-036-069-073-074-212100-
CENTRAL EAST TENNESSEE

CITY           SKY/WX    TMP DP  RH WIND       PRES   REMARKS
KNOXVILLE      CLOUDY    81  65  58 SW15      29.91F
OAK RIDGE      CLOUDY    78  69  73 MISG      29.93F
GATLINBURG     CLEAR     79  66  65 SW9       29.91F
MORRISTOWN     CLEAR     79  66  65 W14       29.92F
$$

TNZ083-085-099-212100-
SOUTHEAST TENNESSEE

CITY           SKY/WX    TMP DP  RH WIND       PRES   REMARKS
CHATTANOOGA    PTSUNNY   85  63  47 SW12      29.93F
$$

SKY/WX REPORTED AS FAIR MEANS FEW OR NO CLOUDS BELOW
12 THOUSAND FEET.



USA.gov is the U.S. government's official web portal to all federal, state and local government web resources and services.